Regional Weather Roundup
Issued by NWS State College, PA

Home | Current Version | Previous Version | Text Only | Print | Product List | Glossary On
Versions: 1 2 3 4 5 6 7 8 9 10 11 12 13 14 15 16 17 18 19 20 21 22 23 24 25 26 27 28 29 30 31 32 33 34 35 36 37 38 39 40 41 42 43 44 45 46 47 48 49 50
000
ASUS41 KCTP 301910
RWRCTP

REGIONAL WEATHER ROUNDUP
NATIONAL WEATHER SERVICE STATE COLLEGE PA
300 PM EDT SAT MAY 30 2015

Note: "fair" indicates few or no clouds below 12,000 feet with no
significant weather and/or obstructions to visibility.

* = STATION THAT DOES NOT REPORT PRECIPITATION /E.G. RAIN...SNOW...ETC/
    THUNDER OR FOG.

PAZ002>004-007>009-013>016-020>023-029>032-302000-
WESTERN PENNSYLVANIA

CITY           SKY/WX    TMP DP  RH WIND       PRES   REMARKS
ERIE           MOSUNNY   79  68  69 S12G17    29.99F
MEADVILLE      PTSUNNY   74  67  78 SW8       30.05S
FRANKLIN*      PTSUNNY   75  64  69 SW9G17    30.07S
NEW CASTLE     FAIR      76  70  82 S5        30.05F
BEAVER COUNTY  MOSUNNY   72  68  88 SW7       30.07F
BUTLER*        PTSUNNY   70  63  78 W12       30.09S
PITTSBURGH INT TSTM      70  66  87 S5        30.08F
PITTSBURGH     PTSUNNY   80  61  52 NW8G18    30.07S
INDIANA*       MOSUNNY   82  66  57 W12       30.11S
LATROBE        PTSUNNY   84  64  51 SW12G21   30.09F
WASHINGTON CO* PTSUNNY   73  64  73 S9        30.10F
$$

PAZ004>006-010>012-017>019-024>028-033>037-041-042-045-046-049>053-302000-
CENTRAL PENNSYLVANIA

CITY           SKY/WX    TMP DP  RH WIND       PRES   REMARKS
BRADFORD       LGT RAIN  77  62  59 S10       30.07F
DUBOIS         PTSUNNY   82  62  50 SW9       30.06F
CLEARFIELD     MOSUNNY   85  61  44 SW14G20   30.06F
JOHNSTOWN      PTSUNNY   78  60  53 SW9       30.13F
ALTOONA        MOSUNNY   84  62  47 S10G18    30.10F
STATE COLLEGE  PTSUNNY   75  70  83 W7        30.08F
WILLIAMSPORT   MOSUNNY   82  66  58 S15G28    30.02F
SELINSGROVE    LGT RAIN  77  70  79 S7        30.08S
FT INDIANTOWN  MOSUNNY   84  66  53 S10       30.08F
CAPITAL CITY   MOSUNNY   85  65  51 S9        30.07F
HARRISBURG     PTSUNNY   85  65  51 VRB7G16   30.06F
YORK           MOSUNNY   85  67  54 S9G20     30.09F
$$

PAZ038>040-043-044-047-048-054-055-060>062-067>071-302000-
EASTERN PENNSYLVANIA

CITY           SKY/WX    TMP DP  RH WIND       PRES   REMARKS
SCRANTON       PTSUNNY   84  64  50 S10G21    30.07F
MOUNT POCONO   PTSUNNY   79  64  60 SW13      30.17F
ALLENTOWN      MOSUNNY   88  64  44 S16G23    30.09F
QUAKERTOWN*    PTCLDY    86  66  51 S13G18    30.12F
READING        CLOUDY    86  63  45 S13G24    30.07F
LANCASTER      PTSUNNY   84  66  54 S16       30.09F
COATESVILLE    CLEAR     82  66  57 SW8G16    30.14F
POTTSTOWN      MOSUNNY   86  63  45 SW13      30.12F
BLUE BELL      MOSUNNY   86  68  54 S13G18    30.11F
DOYLESTOWN     PTSUNNY   82  64  54 S8        30.11F
WILLOW GROVE   NOT AVBL
NORTH PHILA    PTSUNNY   87  64  46 SW13G18   30.13F
PHILADELPHIA   MOSUNNY   86  66  51 S13       30.12F
$$



USA.gov is the U.S. government's official web portal to all federal, state and local government web resources and services.